Inver Grove Heights, MN

12:06 AM CDT on September 25, 2016 (GMT -0500)
South Saint Paul Municipal-Fleming

Weather History for KSGS - October, 2013

Change the Weather History Date:

Tuesday, October 1, 2013

  Actual Average (KMSP) Record (KMSP)
Temperature  
Mean Temperature 66 °F 55 °F  
Max Temperature 77 °F 65 °F 87 °F (1897)
Min Temperature 54 °F 45 °F 24 °F (1974)
Degree Days  
Heating Degree Days 0 10  
Month to date heating degree days 10  
Since 1 July heating degree days 183  
Cooling Degree Days 2 1  
Month to date cooling degree days 1  
Year to date cooling degree days 748  
Growing Degree Days 16 (Base 50)    
Moisture  
Dew Point 42 °F    
Average Humidity 41    
Maximum Humidity 61    
Minimum Humidity 15    
Precipitation  
Precipitation 0.00 in 0.10 in 1.29 in (2009)
Month to date precipitation 0.10  
Year to date precipitation 25.35  
Snow  
Snow 0.00 in 0.00 in 0.00 in ()
Month to date snowfall 0.0  
Since 1 July snowfall T  
Since 1 September snowfall T  
Snow Depth -    
Sea Level Pressure  
Sea Level Pressure 29.80 in    
Wind  
Wind Speed 9 mph (West)    
Max Wind Speed 17 mph    
Max Gust Speed 26 mph    
Visibility 10 miles    
Events      
T = Trace of Precipitation, MM = Missing Value Source: NWS Daily Summary

Daily Weather History Graph

Daily Weather History Graph

Search for Another Location

Airport or City:

Trip Planner

Search our weather history database for the weather conditions in past years. The results will help you decide how hot, cold, wet, or windy it might be!

Date:

Astronomy

Oct. 01, 2013 Rise Set
Actual Time 7:10 AM CDT 6:52 PM CDT
Civil Twilight 6:41 AM CDT 7:21 PM CDT
Nautical Twilight 6:07 AM CDT 7:55 PM CDT
Astronomical Twilight 5:32 AM CDT 8:29 PM CDT
Moon 3:37 AM CDT (10/1) 5:02 PM CDT (10/1)
Length of Visible Light 12h 40m
Length of Day
11h 41m
Waning Crescent, 12% of the Moon is Illuminated
Oct 1
Waning Crescent
Oct 4
New
Oct 11
First Quarter
Oct 18
Full
Oct 26
Last Quarter

Hourly Weather History & Observations

Time (CDT) Temp. Dew Point Humidity Pressure Visibility Wind Dir Wind Speed Gust Speed Precip Events Conditions
12:12 AM 70.2 °F 48.7 °F 46% 29.65 in 10.0 mi SSW 6.9 mph - N/A   Clear
12:32 AM 69.8 °F 49.1 °F 48% 29.65 in 10.0 mi SSW 9.2 mph - N/A   Clear
12:52 AM 69.8 °F 49.5 °F 48% 29.64 in 10.0 mi South 9.2 mph - N/A   Clear
1:12 AM 69.4 °F 49.6 °F 49% 29.64 in 10.0 mi South 8.1 mph - N/A   Clear
1:32 AM 69.1 °F 49.8 °F 50% 29.64 in 10.0 mi South 6.9 mph - N/A   Clear
1:52 AM 68.9 °F 49.6 °F 50% 29.64 in 10.0 mi South 9.2 mph - N/A   Clear
2:12 AM 68.5 °F 50.0 °F 52% 29.63 in 10.0 mi South 9.2 mph 16.1 mph N/A   Clear
2:32 AM 68.5 °F 50.0 °F 52% 29.63 in 10.0 mi SSW 9.2 mph - N/A   Clear
2:52 AM 68.0 °F 50.2 °F 53% 29.62 in 10.0 mi South 9.2 mph - N/A   Clear
3:12 AM 68.4 °F 50.4 °F 53% 29.62 in 10.0 mi South 6.9 mph - N/A   Clear
3:32 AM 68.5 °F 50.4 °F 52% 29.61 in 10.0 mi South 4.6 mph - N/A   Clear
3:52 AM 68.5 °F 50.9 °F 53% 29.62 in 10.0 mi South 8.1 mph - N/A   Clear
4:12 AM 68.5 °F 50.9 °F 53% 29.61 in 10.0 mi SSW 9.2 mph - N/A   Clear
4:32 AM 68.9 °F 50.9 °F 53% 29.61 in 10.0 mi SSW 9.2 mph - N/A   Clear
4:52 AM 69.8 °F 50.9 °F 51% 29.61 in 10.0 mi SSW 9.2 mph 17.3 mph N/A   Clear
5:12 AM 71.1 °F 50.9 °F 49% 29.62 in 10.0 mi SW 12.7 mph 21.9 mph N/A   Clear
5:32 AM 71.4 °F 50.9 °F 48% 29.62 in 10.0 mi SW 16.1 mph 21.9 mph N/A   Clear
5:52 AM 70.7 °F 50.9 °F 49% 29.64 in 10.0 mi SW 12.7 mph 17.3 mph N/A   Clear
6:12 AM 69.4 °F 51.3 °F 52% 29.65 in 10.0 mi WSW 9.2 mph - N/A   Clear
6:32 AM 68.7 °F 51.6 °F 54% 29.66 in 10.0 mi WSW 6.9 mph 16.1 mph N/A   Clear
6:52 AM 68.0 °F 51.8 °F 56% 29.67 in 10.0 mi WSW 8.1 mph - N/A   Clear
7:12 AM 67.3 °F 52.0 °F 58% 29.68 in 10.0 mi West 5.8 mph - N/A   Clear
7:32 AM 66.2 °F 52.2 °F 61% 29.70 in 10.0 mi Calm Calm - N/A   Clear
7:52 AM 66.4 °F 52.5 °F 61% 29.71 in 10.0 mi West 4.6 mph - N/A   Clear
8:12 AM 67.8 °F 52.7 °F 58% 29.73 in 10.0 mi WNW 9.2 mph - N/A   Clear
8:32 AM 68.5 °F 52.0 °F 55% 29.75 in 10.0 mi WNW 12.7 mph 18.4 mph N/A   Clear
8:52 AM 69.1 °F 51.4 °F 53% 29.78 in 10.0 mi WNW 10.4 mph 17.3 mph N/A   Clear
9:12 AM 69.8 °F 50.0 °F 49% 29.78 in 10.0 mi NW 11.5 mph 18.4 mph N/A   Clear
9:32 AM 70.2 °F 48.2 °F 46% 29.80 in 10.0 mi NW 11.5 mph - N/A   Clear
9:52 AM 70.9 °F 48.4 °F 45% 29.80 in 10.0 mi WNW 11.5 mph 20.7 mph N/A   Clear
10:12 AM 71.1 °F 48.0 °F 44% 29.81 in 10.0 mi NW 13.8 mph 19.6 mph N/A   Clear
10:32 AM 71.2 °F 46.6 °F 41% 29.82 in 10.0 mi NW 10.4 mph - N/A   Clear
10:52 AM 72.0 °F 43.5 °F 36% 29.83 in 10.0 mi NNW 11.5 mph 19.6 mph N/A   Clear
11:12 AM 72.7 °F 40.1 °F 31% 29.84 in 10.0 mi NW 13.8 mph 19.6 mph N/A   Clear
11:32 AM 73.2 °F 39.0 °F 29% 29.84 in 10.0 mi NW 12.7 mph 18.4 mph N/A   Clear
11:52 AM 73.6 °F 37.9 °F 27% 29.85 in 10.0 mi WNW 15.0 mph 20.7 mph N/A   Clear
12:12 PM 74.5 °F 36.5 °F 25% 29.85 in 10.0 mi NW 12.7 mph 19.6 mph N/A   Clear
12:32 PM 75.2 °F 36.1 °F 24% 29.85 in 10.0 mi West 12.7 mph 20.7 mph N/A   Clear
12:52 PM 75.4 °F 34.7 °F 23% 29.85 in 10.0 mi West 12.7 mph 20.7 mph N/A   Clear
1:12 PM 76.1 °F 34.9 °F 22% 29.86 in 10.0 mi West 10.4 mph 17.3 mph N/A   Clear
1:32 PM 76.6 °F 31.8 °F 19% 29.86 in 10.0 mi WNW 15.0 mph 20.7 mph N/A   Clear
1:52 PM 77.0 °F 31.5 °F 19% 29.86 in 10.0 mi West 11.5 mph 17.3 mph N/A   Clear
2:12 PM 77.5 °F 29.3 °F 17% 29.86 in 10.0 mi West 13.8 mph 20.7 mph N/A   Clear
2:32 PM 77.2 °F 30.7 °F 18% 29.86 in 10.0 mi WNW 10.4 mph 16.1 mph N/A   Clear
2:52 PM 77.0 °F 27.5 °F 16% 29.87 in 10.0 mi West 17.3 mph 23.0 mph N/A   Clear
3:12 PM 77.4 °F 26.1 °F 15% 29.87 in 10.0 mi West 16.1 mph 26.5 mph N/A   Clear
3:32 PM 77.0 °F 27.9 °F 16% 29.87 in 10.0 mi WNW 16.1 mph 24.2 mph N/A   Clear
3:52 PM 76.6 °F 29.1 °F 17% 29.87 in 10.0 mi WNW 13.8 mph 23.0 mph N/A   Clear
4:12 PM 76.5 °F 30.7 °F 19% 29.88 in 10.0 mi West 11.5 mph 23.0 mph N/A   Clear
4:32 PM 76.3 °F 31.1 °F 19% 29.88 in 10.0 mi WNW 11.5 mph 16.1 mph N/A   Clear
4:52 PM 76.5 °F 31.6 °F 19% 29.89 in 10.0 mi West 9.2 mph - N/A   Clear
5:12 PM 75.9 °F 30.6 °F 19% 29.89 in 10.0 mi WNW 10.4 mph 17.3 mph N/A   Clear
5:32 PM 75.4 °F 28.8 °F 18% 29.89 in 10.0 mi West 10.4 mph 18.4 mph N/A   Clear
5:52 PM 74.8 °F 28.0 °F 18% 29.90 in 10.0 mi WNW 8.1 mph 16.1 mph N/A   Clear
6:12 PM 73.8 °F 30.2 °F 20% 29.90 in 10.0 mi WNW 6.9 mph - N/A   Clear
6:32 PM 72.0 °F 32.0 °F 23% 29.90 in 10.0 mi West 3.5 mph - N/A   Clear
6:52 PM 70.9 °F 32.9 °F 25% 29.91 in 10.0 mi West 3.5 mph - N/A   Clear
7:12 PM 66.9 °F 38.5 °F 35% 29.91 in 10.0 mi West 3.5 mph - N/A   Clear
7:32 PM 64.8 °F 39.9 °F 40% 29.92 in 10.0 mi Calm Calm - N/A   Clear
7:52 PM 61.0 °F 43.9 °F 53% 29.92 in 10.0 mi SW 3.5 mph - N/A   Clear
8:12 PM 59.2 °F 43.2 °F 55% 29.93 in 10.0 mi Calm Calm - N/A   Clear
8:32 PM 59.5 °F 42.8 °F 54% 29.94 in 10.0 mi WSW 3.5 mph - N/A   Clear
8:52 PM 58.8 °F 42.8 °F 55% 29.94 in 10.0 mi Calm Calm - N/A   Clear
9:12 PM 57.0 °F 43.9 °F 61% 29.95 in 10.0 mi WSW 3.5 mph - N/A   Clear
9:32 PM 57.7 °F 42.4 °F 57% 29.95 in 10.0 mi Calm Calm - N/A   Clear
9:52 PM 57.4 °F 42.8 °F 58% 29.95 in 10.0 mi Calm Calm - N/A   Clear
10:12 PM 56.7 °F 41.9 °F 58% 29.96 in 10.0 mi Calm Calm - N/A   Clear
10:32 PM 56.7 °F 42.6 °F 59% 29.97 in 10.0 mi WSW 3.5 mph - N/A   Clear
10:52 PM 57.6 °F 40.8 °F 54% 29.97 in 10.0 mi Calm Calm - N/A   Clear
11:12 PM 58.1 °F 40.8 °F 53% 29.97 in 10.0 mi Calm Calm - N/A   Clear
11:32 PM 57.4 °F 40.5 °F 53% 29.98 in 10.0 mi Calm Calm - N/A   Clear
11:52 PM 54.9 °F 41.0 °F 60% 29.99 in 10.0 mi Calm Calm - N/A   Clear